Torna al catalogo

CZ-2C R/B

AttivoSSO
NORAD 62078·ROCKET BODY·🇨🇳 China

Lanciato Nov 24, 2024 da Jiuquan Satellite Launch Center

Loading…

Prossimi Passaggi (prossime 24 ore)

TLE

AggiornatoSource: Space-Track

Epoca: Sep 14, 2026, 00:34 UTC

1 62078U 24218A   26257.02394678  .00004974  00000-0  19607-3 0  9991
2 62078  97.5334 273.0773 0044792  58.7037 301.8575 15.25119540 99999

Traccia CZ-2C R/B in tempo reale con AllMySat

Download on the App Store